Weather History for KVYS - February, 2012

Change the Weather History Date:

Sunday, February 5, 2012

  Actual Average Record
Temperature  
Mean Temperature 34 °F -  
Max Temperature 39 °F 30 °F 55 °F (2005)
Min Temperature 30 °F 13 °F -21 °F (1979)
Degree Days  
Heating Degree Days 30    
Moisture  
Dew Point 31 °F    
Average Humidity 88    
Maximum Humidity 96    
Minimum Humidity 79    
Precipitation  
Precipitation 0.00 in - - ()
Sea Level Pressure  
Sea Level Pressure 30.27 in    
Wind  
Wind Speed 5 mph (NNW)    
Max Wind Speed 10 mph    
Max Gust Speed -    
Visibility 8 miles    
Events      
Averages and records for this station are not official NWS values.
T = Trace of Precipitation, MM = Missing Value Source: NWS Daily Summary

Daily Weather History Graph

Daily Weather History Graph

Search for Another Location

Airport or City:

Trip Planner

Search our weather history database for the weather conditions in past years. The results will help you decide how hot, cold, wet, or windy it might be!

Date:

Astronomy

Feb. 05, 2012 Rise Set
Actual Time 7:04 AM CST 5:17 PM CST
Civil Twilight 6:35 AM CST 5:46 PM CST
Nautical Twilight 6:02 AM CST 6:19 PM CST
Astronomical Twilight 5:30 AM CST 6:51 PM CST
Moon 3:15 PM CST (2/5) 5:16 AM CST (2/5)
Length of Visible Light 11h 11m
Length of Day
10h 13m
Waxing Gibbous, 95% of the Moon is Illuminated
Feb 5
Waxing Gibbous
Feb 7
Full
Feb 14
Last Quarter
Feb 21
New
Feb 29
First Quarter

Hourly Weather History & Observations

Time (CST) Temp. Windchill Dew Point Humidity Pressure Visibility Wind Dir Wind Speed Gust Speed Precip Events Conditions
12:15 AM 36.3 °F 33.7 °F 33.3 °F 89% 30.20 in 5.0 mi North 3.5 mph - N/A   Scattered Clouds
12:35 AM 35.6 °F 32.8 °F 32.5 °F 89% 30.20 in 5.0 mi North 3.5 mph - N/A   Clear
12:55 AM 34.5 °F 31.6 °F 32.0 °F 90% 30.20 in 4.0 mi NNW 3.5 mph - N/A   Clear
1:15 AM 34.0 °F 31.0 °F 32.0 °F 92% 30.20 in 3.0 mi NNW 3.5 mph - N/A   Clear
1:35 AM 33.3 °F - 32.0 °F 95% 30.20 in 3.0 mi Calm Calm - N/A   Clear
1:55 AM 32.9 °F 29.8 °F 31.6 °F 95% 30.21 in 3.0 mi NW 3.5 mph - N/A   Clear
2:15 AM 32.0 °F 27.5 °F 30.9 °F 96% 30.21 in 2.5 mi NW 4.6 mph - N/A   Clear
2:35 AM 32.2 °F 26.7 °F 31.3 °F 96% 30.21 in 4.0 mi NNW 5.8 mph - N/A   Clear
2:55 AM 32.0 °F 28.7 °F 30.6 °F 94% 30.21 in 4.0 mi NW 3.5 mph - N/A   Clear
3:15 AM 32.2 °F - 31.1 °F 96% 30.21 in 5.0 mi Calm Calm - N/A   Clear
3:35 AM 31.1 °F 27.7 °F 29.3 °F 93% 30.21 in 4.0 mi WNW 3.5 mph - N/A   Clear
3:55 AM 31.8 °F 26.2 °F 30.2 °F 94% 30.21 in 4.0 mi NW 5.8 mph - N/A   Clear
4:15 AM 32.0 °F 26.4 °F 30.2 °F 93% 30.22 in 7.0 mi NW 5.8 mph - N/A   Clear
4:35 AM 31.6 °F 26.0 °F 29.3 °F 91% 30.22 in 7.0 mi NW 5.8 mph - N/A   Clear
4:55 AM 31.1 °F 24.5 °F 29.1 °F 92% 30.22 in 7.0 mi NW 6.9 mph - N/A   Clear
5:15 AM 31.1 °F 24.5 °F 28.9 °F 92% 30.23 in 7.0 mi NNW 6.9 mph - N/A   Clear
5:35 AM 30.2 °F 24.3 °F 28.4 °F 93% 30.24 in 7.0 mi NW 5.8 mph - N/A   Clear
5:55 AM 30.4 °F 25.6 °F 27.9 °F 90% 30.24 in 10.0 mi WNW 4.6 mph - N/A   Clear
6:15 AM 30.7 °F 24.1 °F 28.2 °F 90% 30.25 in 10.0 mi NW 6.9 mph - N/A   Clear
6:35 AM 30.6 °F 23.8 °F 28.2 °F 91% 30.25 in 7.0 mi NNW 6.9 mph - N/A   Clear
6:55 AM 30.6 °F 23.8 °F 28.0 °F 90% 30.26 in 10.0 mi NNW 6.9 mph - N/A   Clear
7:15 AM 31.8 °F 25.4 °F 28.6 °F 88% 30.26 in 10.0 mi NNW 6.9 mph - N/A   Clear
7:35 AM 32.0 °F 25.6 °F 28.4 °F 87% 30.27 in 10.0 mi North 6.9 mph - N/A   Clear
7:55 AM 32.9 °F 28.5 °F 29.3 °F 87% 30.28 in 10.0 mi North 4.6 mph - N/A   Clear
8:15 AM 34.0 °F 28.8 °F 30.0 °F 85% 30.29 in 10.0 mi North 5.8 mph - N/A   Clear
8:35 AM 34.3 °F 27.0 °F 30.2 °F 85% 30.29 in 10.0 mi NNE 9.2 mph - N/A   Clear
8:55 AM 35.1 °F 27.4 °F 30.4 °F 83% 30.29 in 10.0 mi NE 10.4 mph - N/A   Clear
9:15 AM 35.2 °F 28.8 °F 30.9 °F 84% 30.30 in 10.0 mi NE 8.1 mph - N/A   Clear
9:35 AM 34.3 °F 27.0 °F 30.6 °F 86% 30.30 in 7.0 mi NE 9.2 mph - N/A   Scattered Clouds
9:55 AM 32.9 °F 24.7 °F 30.6 °F 91% 30.31 in 3.0 mi ENE 10.4 mph - N/A   Mostly Cloudy
10:15 AM 33.3 °F 25.1 °F 31.6 °F 94% 30.30 in 2.5 mi ENE 10.4 mph - N/A   Overcast
10:35 AM 34.0 °F 28.8 °F 32.2 °F 93% 30.31 in 4.0 mi NE 5.8 mph - N/A   Overcast
10:55 AM 34.3 °F 29.2 °F 32.2 °F 92% 30.32 in 5.0 mi NE 5.8 mph - N/A   Overcast
11:15 AM 34.7 °F 28.8 °F 32.4 °F 91% 30.32 in 5.0 mi NNE 6.9 mph - N/A   Overcast
11:35 AM 35.2 °F 31.2 °F 32.5 °F 90% 30.32 in 7.0 mi NNE 4.6 mph - N/A   Overcast
11:55 AM 35.2 °F 30.3 °F 32.2 °F 89% 30.31 in 10.0 mi NE 5.8 mph - N/A   Overcast
12:15 PM 36.1 °F 30.6 °F 33.1 °F 89% 30.31 in 10.0 mi NNE 6.9 mph - N/A   Overcast
12:35 PM 36.5 °F 31.8 °F 33.1 °F 87% 30.31 in 10.0 mi North 5.8 mph - N/A   Overcast
12:55 PM 36.5 °F 32.7 °F 32.9 °F 87% 30.31 in 10.0 mi North 4.6 mph - N/A   Overcast
1:15 PM 36.5 °F 32.7 °F 32.5 °F 86% 30.30 in 10.0 mi North 4.6 mph - N/A   Overcast
1:35 PM 36.9 °F - 32.5 °F 84% 30.30 in 10.0 mi Calm Calm - N/A   Overcast
1:55 PM 37.9 °F - 33.1 °F 83% 30.30 in 10.0 mi Calm Calm - N/A   Overcast
2:15 PM 39.2 °F 37.0 °F 33.8 °F 81% 30.30 in 10.0 mi NNW 3.5 mph - N/A   Overcast
2:35 PM 38.5 °F - 32.9 °F 80% 30.30 in 10.0 mi Calm Calm - N/A   Scattered Clouds
2:55 PM 39.2 °F 37.0 °F 33.4 °F 80% 30.30 in 10.0 mi North 3.5 mph - N/A   Clear
3:15 PM 39.7 °F 34.9 °F 34.0 °F 80% 30.29 in 10.0 mi North 6.9 mph - N/A   Scattered Clouds
3:35 PM 39.2 °F 32.5 °F 33.8 °F 81% 30.30 in 10.0 mi NNW 10.4 mph - N/A   Mostly Cloudy
3:55 PM 39.2 °F 34.2 °F 32.9 °F 78% 30.29 in 10.0 mi NNW 6.9 mph - N/A   Scattered Clouds
4:15 PM 39.2 °F 34.2 °F 32.9 °F 78% 30.29 in 10.0 mi NNW 6.9 mph - N/A   Clear
4:35 PM 39.2 °F 35.0 °F 33.3 °F 79% 30.30 in 10.0 mi NNW 5.8 mph - N/A   Clear
4:55 PM 39.2 °F 35.0 °F 33.4 °F 80% 30.29 in 10.0 mi North 5.8 mph - N/A   Clear
5:15 PM 37.4 °F 34.9 °F 32.5 °F 83% 30.30 in 10.0 mi NW 3.5 mph - N/A   Clear
5:35 PM 35.2 °F - 32.2 °F 89% 30.30 in 10.0 mi Calm Calm - N/A   Clear
5:55 PM 34.9 °F 32.0 °F 32.0 °F 89% 30.30 in 10.0 mi WNW 3.5 mph - N/A   Clear
6:15 PM 34.5 °F 31.6 °F 32.0 °F 90% 30.30 in 10.0 mi West 3.5 mph - N/A   Clear
6:35 PM 35.2 °F 32.4 °F 32.4 °F 89% 30.30 in 10.0 mi West 3.5 mph - N/A   Clear
6:55 PM 34.2 °F 31.2 °F 32.0 °F 92% 30.30 in 7.0 mi West 3.5 mph - N/A   Clear
7:15 PM 34.2 °F 30.0 °F 32.0 °F 92% 30.30 in 7.0 mi West 4.6 mph - N/A   Clear
7:35 PM 34.3 °F 31.4 °F 32.4 °F 92% 30.29 in 7.0 mi West 3.5 mph - N/A   Clear
7:55 PM 34.7 °F 31.8 °F 32.0 °F 90% 30.29 in 10.0 mi WSW 3.5 mph - N/A   Clear
8:15 PM 34.3 °F - 31.8 °F 90% 30.29 in 7.0 mi Calm Calm - N/A   Clear
8:35 PM 34.3 °F 31.4 °F 32.0 °F 91% 30.28 in 7.0 mi WSW 3.5 mph - N/A   Clear
8:55 PM 33.6 °F 29.4 °F 31.8 °F 93% 30.28 in 4.0 mi West 4.6 mph - N/A   Clear
9:15 PM 32.0 °F 26.4 °F 30.4 °F 94% 30.28 in 4.0 mi West 5.8 mph - N/A   Clear
9:35 PM 32.5 °F 26.2 °F 31.3 °F 95% 30.28 in 7.0 mi West 6.9 mph - N/A   Clear
9:55 PM 33.3 °F 27.1 °F 31.8 °F 94% 30.27 in 5.0 mi WNW 6.9 mph - N/A   Clear
10:15 PM 32.9 °F 27.5 °F 31.3 °F 94% 30.27 in 5.0 mi WNW 5.8 mph - N/A   Clear
10:35 PM 32.9 °F 25.9 °F 31.5 °F 94% 30.26 in 4.0 mi WNW 8.1 mph - N/A   Clear
10:55 PM 32.9 °F 25.3 °F 31.1 °F 93% 30.26 in 4.0 mi WNW 9.2 mph - N/A   Scattered Clouds
11:15 PM 32.9 °F 24.7 °F 31.5 °F 94% 30.26 in 1.8 mi WNW 10.4 mph - N/A   Overcast
11:35 PM 32.7 °F 24.5 °F 31.6 °F 96% 30.26 in 0.5 mi WNW 10.4 mph - N/A Fog Fog
11:55 PM 32.4 °F 25.3 °F 31.8 °F 98% 30.26 in 0.2 mi WNW 8.1 mph - N/A Fog Fog